FW8471 Weather Reports


time (UTC)temp
F
wind
direction
speed
knots
gust
knots
rain 1hr
in
rain 24hr
in
rain mn
in
humidity
%
barometer
mb
20260507015116 67 348 1.7 2.6 0.00 0.00 0.00 65 1017.3
20260507014613 67 282 2.6 4.3 0.00 0.00 0.00 65 1017.3
20260507014109 67 280 3.5 5.2 0.00 0.00 0.00 64 1017.2
20260507013606 68 306 0.9 1.7 0.00 0.00 0.00 64 1017.1
20260507013103 68 200 3.5 6.1 0.00 0.00 0.00 63 1017.1
20260507012600 69 258 1.7 2.6 0.00 0.00 0.00 62 1017.0
20260507012055 69 326 3.5 4.3 0.00 0.00 0.00 61 1017.0
20260507011554 69 313 4.3 6.1 0.00 0.00 0.00 61 1017.0
20260507011050 69 296 2.6 2.6 0.00 0.00 0.00 61 1017.0
20260507010544 70 233 3.5 5.2 0.00 0.00 0.00 60 1016.7
20260507010041 70 260 3.5 5.2 0.00 0.00 0.00 59 1016.9
20260507005538 70 258 2.6 5.2 0.00 0.00 0.00 59 1016.9
20260507005034 71 292 4.3 5.2 0.00 0.00 0.00 59 1016.7
20260507004532 70 263 3.5 6.1 0.00 0.00 0.00 59 1016.7
20260507004029 71 247 4.3 7.8 0.00 0.00 0.00 58 1017.0
20260507003524 71 301 4.3 7.8 0.00 0.00 0.00 57 1016.7
20260507003020 71 271 4.3 6.1 0.00 0.00 0.00 58 1016.8
20260507002516 72 247 4.3 7.0 0.00 0.00 0.00 56 1016.6
20260507002013 72 227 2.6 4.3 0.00 0.00 0.00 56 1016.7
20260507001509 73 240 4.3 5.2 0.00 0.00 0.00 55 1016.5
20260507001007 73 287 6.1 7.8 0.00 0.00 0.00 56 1016.7
20260507000503 73 275 6.1 7.8 0.00 0.00 0.00 54 1016.9
20260506235958 73 284 5.2 7.0 0.00 0.00 0.00 53 1016.5
20260506235456 73 288 4.3 6.1 0.00 0.00 0.00 52 1016.6
20260506234951 72 232 5.2 7.0 0.00 0.00 0.00 53 1016.6
20260506234449 74 320 7.8 7.8 0.00 0.00 0.00 52 1016.3
20260506233946 73 232 2.6 4.3 0.00 0.00 0.00 52 1016.5
20260506233443 73 238 3.5 5.2 0.00 0.00 0.00 52 1016.4
20260506232939 74 275 4.3 6.1 0.00 0.00 0.00 52 1016.6
20260506232436 73 265 5.2 7.8 0.00 0.00 0.00 52 1016.7
20260506231931 73 291 2.6 4.3 0.00 0.00 0.00 51 1016.7
20260506231429 73 232 7.0 8.7 0.00 0.00 0.00 51 1016.8
20260506230926 74 289 1.7 2.6 0.00 0.00 0.00 50 1016.8
20260506230422 73 282 5.2 7.0 0.00 0.00 0.00 51 1016.9
20260506225919 74 231 2.6 6.1 0.00 0.00 0.00 49 1017.0
20260506225417 73 241 4.3 6.1 0.00 0.00 0.00 50 1016.8
20260506224914 74 292 5.2 7.8 0.00 0.00 0.00 49 1016.9
20260506224411 73 262 1.7 2.6 0.00 0.00 0.00 49 1016.8
20260506223907 72 258 6.1 7.0 0.00 0.00 0.00 51 1017.0
20260506223402 73 289 6.1 7.0 0.00 0.00 0.00 49 1017.1
20260506222900 73 194 3.5 5.2 0.00 0.00 0.00 49 1017.2
20260506222356 73 241 3.5 4.3 0.00 0.00 0.00 50 1017.2
20260506221853 73 279 5.2 6.1 0.00 0.00 0.00 49 1017.4
20260506221350 72 280 6.1 7.0 0.00 0.00 0.00 49 1017.4
20260506220848 72 202 3.5 5.2 0.00 0.00 0.00 50 1017.3
20260506220343 73 298 4.3 6.1 0.00 0.00 0.00 50 1017.4
20260506215840 72 299 3.5 5.2 0.00 0.00 0.00 51 1017.4
20260506215336 72 320 0.0 0.9 0.00 0.00 0.00 52 1017.4
20260506214832 72 268 6.1 7.8 0.00 0.00 0.00 51 1017.6
20260506214329 71 255 4.3 6.1 0.00 0.00 0.00 51 1017.5
20260506213828 71 282 4.3 6.1 0.00 0.00 0.00 51 1017.6
20260506213324 71 311 1.7 4.3 0.00 0.00 0.00 51 1017.6
20260506212822 72 243 2.6 2.6 0.00 0.00 0.00 51 1017.8
20260506212317 72 286 2.6 4.3 0.00 0.00 0.00 53 1018.1
20260506211812 73 258 3.5 5.2 0.00 0.00 0.00 51 1017.9
20260506211309 71 212 4.3 5.2 0.00 0.00 0.00 50 1018.2
20260506210806 71 288 3.5 4.3 0.00 0.00 0.00 51 1017.9
20260506210257 71 270 2.6 5.2 0.00 0.00 0.00 51 1018.1
20260506205754 70 241 2.6 5.2 0.00 0.00 0.00 53 1018.2
20260506205250 71 173 2.6 5.2 0.00 0.00 0.00 51 1018.4
20260506204747 71 242 5.2 7.0 0.00 0.00 0.00 50 1018.5
20260506204245 71 332 3.5 5.2 0.00 0.00 0.00 50 1018.5
20260506203742 71 335 0.0 0.0 0.00 0.00 0.00 54 1018.4
20260506203239 70 293 3.5 5.2 0.00 0.00 0.00 52 1018.5
20260506202736 70 329 2.6 2.6 0.00 0.00 0.00 52 1018.6
20260506202233 70 198 5.2 6.1 0.00 0.00 0.00 50 1018.6
20260506201730 69 256 1.7 1.7 0.00 0.00 0.00 52 1018.6
20260506201227 69 308 0.9 0.9 0.00 0.00 0.00 52 1018.8
20260506200723 69 160 1.7 2.6 0.00 0.00 0.00 51 1018.6
20260506200220 70 187 2.6 5.2 0.00 0.00 0.00 51 1018.8
20260506195716 69 282 2.6 4.3 0.00 0.00 0.00 52 1018.8
20260506195213 67 303 1.7 1.7 0.00 0.00 0.00 55 1019.0
20260506194710 67 297 3.5 4.3 0.00 0.00 0.00 55 1018.9
20260506194206 68 137 2.6 2.6 0.00 0.00 0.00 53 1018.9
20260506193659 67 284 2.6 4.3 0.00 0.00 0.00 54 1019.0
20260506193155 67 281 1.7 2.6 0.00 0.00 0.00 55 1019.1
20260506192652 66 201 3.5 5.2 0.00 0.00 0.00 56 1018.9
20260506192148 67 288 2.6 5.2 0.00 0.00 0.00 55 1019.2
20260506191646 67 264 4.3 5.2 0.00 0.00 0.00 55 1019.4
20260506191141 66 172 3.5 4.3 0.00 0.00 0.00 56 1019.3
20260506190639 66 217 1.7 2.6 0.00 0.00 0.00 57 1019.1
20260506190135 67 260 3.5 4.3 0.00 0.00 0.00 58 1019.3
20260506185633 66 303 0.9 0.9 0.00 0.00 0.00 57 1019.4
20260506185129 64 315 0.0 0.9 0.00 0.00 0.00 61 1019.6
20260506184626 66 252 4.3 6.1 0.00 0.00 0.00 57 1019.6
20260506184124 64 317 0.0 0.9 0.00 0.00 0.00 59 1019.7
20260506183620 64 208 1.7 2.6 0.00 0.00 0.00 61 1019.7
20260506183116 65 311 0.9 0.9 0.00 0.00 0.00 60 1019.6
20260506182614 63 312 0.0 0.9 0.00 0.00 0.00 62 1020.1
20260506182111 63 82 3.5 5.2 0.00 0.00 0.00 64 1019.6
20260506181609 65 206 4.3 6.1 0.00 0.00 0.00 59 1019.8
20260506181105 64 347 0.0 0.9 0.00 0.00 0.00 63 1019.8
20260506180602 63 327 1.7 2.6 0.00 0.00 0.00 62 1019.7
20260506180059 63 90 0.9 1.7 0.00 0.00 0.00 62 1020.1
20260506175555 63 317 0.0 0.0 0.00 0.00 0.00 60 1020.0
20260506175051 62 306 1.7 2.6 0.00 0.00 0.00 64 1019.7
20260506174550 62 298 1.7 1.7 0.00 0.00 0.00 67 1019.7
20260506174045 62 293 0.9 0.9 0.00 0.00 0.00 65 1019.5
20260506173544 62 242 3.5 4.3 0.00 0.00 0.00 63 1019.7
20260506173040 61 245 1.7 1.7 0.00 0.00 0.00 64 1019.7
20260506172538 61 275 1.7 2.6 0.00 0.00 0.00 65 1019.6
20260506172034 61 208 5.2 6.1 0.00 0.00 0.00 65 1019.7
20260506171531 62 312 0.9 0.9 0.00 0.00 0.00 63 1019.6
20260506171029 61 208 2.6 4.3 0.00 0.00 0.00 65 1019.6
20260506170526 60 318 0.9 0.9 0.00 0.00 0.00 65 1019.6
20260506170023 61 75 0.9 1.7 0.00 0.00 0.00 65 1020.0
20260506165521 61 60 0.9 1.7 0.00 0.00 0.00 65 1019.6
20260506165012 60 71 0.9 1.7 0.00 0.00 0.00 68 1019.5
20260506164509 59 298 0.9 0.9 0.00 0.00 0.00 66 1019.7
20260506164007 59 179 2.6 2.6 0.00 0.00 0.00 66 1019.6
20260506163502 59 201 2.6 2.6 0.00 0.00 0.00 65 1019.6
20260506162956 59 299 0.9 1.7 0.00 0.00 0.00 67 1019.7
20260506162454 59 244 2.6 2.6 0.00 0.00 0.00 68 1019.7
20260506161951 59 258 1.7 1.7 0.00 0.00 0.00 68 1019.6
20260506161449 58 299 0.9 0.9 0.00 0.00 0.00 68 1019.6
20260506160946 58 316 0.0 0.0 0.00 0.00 0.00 68 1019.8
20260506160443 57 318 0.0 0.9 0.00 0.00 0.00 68 1019.5
20260506155941 57 284 1.7 1.7 0.00 0.00 0.00 70 1019.4
20260506155438 58 307 0.9 0.9 0.00 0.00 0.00 68 1019.6
20260506153605 57 311 0.9 1.7 0.00 0.00 0.00 70 1019.6
20260506153102 56 311 0.0 0.9 0.00 0.00 0.00 71 1019.6
20260506152559 56 279 0.9 1.7 0.00 0.00 0.00 71 1019.7
20260506152057 56 230 1.7 1.7 0.00 0.00 0.00 70 1019.4
20260506151555 56 284 2.6 2.6 0.00 0.00 0.00 70 1019.7
20260506151052 57 277 1.7 1.7 0.00 0.00 0.00 70 1019.5
20260506150548 55 312 0.0 0.0 0.00 0.00 0.00 68 1019.7
20260506150045 55 289 0.9 1.7 0.00 0.00 0.00 72 1019.7
20260506145542 56 328 0.0 0.0 0.00 0.00 0.00 71 1019.8
20260506145040 57 301 0.9 0.9 0.00 0.00 0.00 70 1019.6
20260506144536 58 331 0.0 0.9 0.00 0.00 0.00 68 1019.5
20260506144033 56 322 0.0 0.0 0.00 0.00 0.00 71 1019.6
20260506143531 58 306 0.9 0.9 0.00 0.00 0.00 68 1019.5
20260506143029 61 344 0.0 0.0 0.00 0.00 0.00 67 1019.3
20260506142527 60 344 0.0 0.0 0.00 0.00 0.00 67 1019.6
20260506142025 58 344 0.0 0.0 0.00 0.00 0.00 70 1019.2
20260506141522 60 344 0.0 0.0 0.00 0.00 0.00 67 1019.4
20260506141020 59 344 0.0 0.0 0.00 0.00 0.00 69 1019.4
20260506140517 57 344 0.0 0.0 0.00 0.00 0.00 72 1019.5
20260506140015 55 344 0.0 0.0 0.00 0.00 0.00 75 1019.3
20260506135511 53 344 0.0 0.9 0.00 0.00 0.00 76 1019.5
20260506135008 52 341 0.0 0.0 0.00 0.00 0.00 80 1019.6
20260506134504 51 341 0.0 0.0 0.00 0.00 0.00 80 1019.3
20260506134000 50 341 0.0 0.9 0.00 0.00 0.00 82 1019.3
20260506133457 49 340 0.0 0.0 0.00 0.00 0.00 84 1019.2
20260506132954 48 338 0.0 0.0 0.00 0.00 0.00 87 1019.0
20260506132451 47 336 0.0 0.9 0.00 0.00 0.00 90 1019.0
20260506131948 46 336 0.0 0.0 0.00 0.00 0.00 91 1019.1
20260506131445 46 323 0.9 0.9 0.00 0.00 0.00 91 1019.0
20260506130942 45 322 0.9 0.9 0.00 0.00 0.00 92 1019.0
20260506130439 45 326 0.9 0.9 0.00 0.00 0.00 92 1018.7
20260506125936 45 321 0.9 0.9 0.00 0.00 0.00 92 1018.6
20260506125434 45 322 0.9 0.9 0.00 0.00 0.00 92 1018.8
20260506124932 45 324 0.9 0.9 0.00 0.00 0.00 93 1018.7
20260506124430 45 335 0.9 0.9 0.00 0.00 0.00 93 1018.9
20260506123927 45 335 0.0 0.0 0.00 0.00 0.00 93 1018.7
20260506123425 45 333 0.0 0.0 0.00 0.00 0.00 93 1018.6
20260506122922 46 333 0.0 0.9 0.00 0.00 0.00 93 1018.6
20260506122419 46 325 0.0 0.0 0.00 0.00 0.00 93 1018.7
20260506121918 46 323 0.9 0.9 0.00 0.00 0.00 93 1018.8
20260506121414 46 337 0.0 0.0 0.00 0.00 0.00 92 1018.7
20260506120911 46 337 0.0 0.0 0.00 0.00 0.00 92 1018.6
20260506120409 46 337 0.0 0.0 0.00 0.00 0.00 92 1018.7
20260506115906 46 339 0.9 0.9 0.00 0.00 0.00 91 1018.7
20260506115404 46 342 0.9 0.9 0.00 0.00 0.00 91 1018.6
20260506114902 46 341 0.9 1.7 0.00 0.00 0.00 91 1018.6
20260506114359 46 343 0.9 1.7 0.00 0.00 0.00 91 1018.9
20260506113858 46 343 0.9 1.7 0.00 0.00 0.00 91 1018.6
20260506113355 46 342 0.9 1.7 0.00 0.00 0.00 92 1018.6
20260506112851 46 338 0.0 0.0 0.00 0.00 0.00 91 1018.6
20260506112348 46 337 0.0 0.0 0.00 0.00 0.00 91 1018.6
20260506111846 46 344 0.9 1.7 0.00 0.00 0.00 91 1018.5
20260506111344 46 345 0.9 1.7 0.00 0.00 0.00 91 1018.6
20260506110841 46 342 0.9 0.9 0.00 0.00 0.00 91 1018.4
20260506110338 46 346 0.9 1.7 0.00 0.00 0.00 91 1018.5
20260506105835 46 344 0.9 1.7 0.00 0.00 0.00 91 1018.4
20260506105331 46 345 0.9 0.9 0.00 0.00 0.00 90 1018.7
20260506104829 46 346 1.7 1.7 0.00 0.00 0.00 90 1018.6
20260506104327 46 348 0.9 0.9 0.00 0.00 0.00 90 1018.5
20260506103824 46 358 0.9 1.7 0.00 0.00 0.00 90 1018.5
20260506103321 46 344 0.9 0.9 0.00 0.00 0.00 91 1018.5
20260506102819 46 341 0.9 0.9 0.00 0.00 0.00 91 1018.4
20260506102317 46 340 0.9 0.9 0.00 0.00 0.00 91 1018.7
20260506101814 46 340 0.0 0.0 0.00 0.00 0.00 91 1018.7
20260506101309 46 341 0.9 0.9 0.00 0.00 0.00 90 1018.5
20260506100808 46 335 0.9 1.7 0.00 0.00 0.00 90 1018.5
20260506100306 46 344 0.9 1.7 0.00 0.00 0.00 91 1018.4
20260506095804 46 333 0.9 0.9 0.00 0.00 0.00 91 1018.6
20260506095300 46 332 0.9 0.9 0.00 0.00 0.00 91 1018.7
20260506094757 46 322 0.9 0.9 0.00 0.00 0.00 91 1018.6
20260506094256 46 325 0.9 1.7 0.00 0.00 0.00 91 1018.7
20260506093754 46 326 0.0 0.9 0.00 0.00 0.00 90 1018.5
20260506093250 46 318 2.6 2.6 0.00 0.00 0.00 91 1018.3
20260506092749 46 322 0.9 1.7 0.00 0.00 0.00 91 1018.5
20260506092246 46 325 0.0 0.9 0.00 0.00 0.00 91 1018.5
20260506091743 46 325 0.9 0.9 0.00 0.00 0.00 91 1018.5
20260506091240 46 327 0.9 1.7 0.00 0.00 0.00 91 1018.6
20260506090738 46 323 1.7 1.7 0.00 0.00 0.00 92 1018.7
20260506090235 46 326 0.0 0.9 0.00 0.00 0.00 91 1018.5
20260506085732 47 326 0.0 0.9 0.00 0.00 0.00 91 1018.6
20260506085228 47 329 0.9 0.9 0.00 0.00 0.00 91 1018.6
20260506084725 47 338 0.0 0.9 0.00 0.00 0.00 90 1018.6
20260506084221 47 335 0.0 0.0 0.00 0.00 0.00 91 1018.9
20260506083718 47 325 0.0 0.9 0.00 0.00 0.00 90 1018.9
20260506083216 47 321 0.9 1.7 0.00 0.00 0.00 90 1018.8
20260506082713 47 317 0.9 1.7 0.00 0.00 0.00 91 1018.6
20260506082209 47 322 1.7 1.7 0.00 0.00 0.00 91 1018.8
20260506081706 47 320 1.7 1.7 0.00 0.00 0.00 91 1018.9
20260506081204 47 321 0.9 1.7 0.00 0.00 0.00 90 1018.9
20260506080702 47 318 0.9 0.9 0.00 0.00 0.00 90 1019.0
20260506080158 47 319 0.9 0.9 0.00 0.00 0.00 90 1018.9
20260506073142 48 323 0.0 0.9 0.00 0.00 0.00 90 1019.0
20260506072638 48 326 0.9 0.9 0.00 0.00 0.00 90 1018.9
20260506072136 48 327 0.0 0.0 0.00 0.00 0.00 89 1019.0
20260506071634 48 325 0.0 0.0 0.00 0.00 0.00 89 1018.8
20260506071131 48 325 0.0 0.0 0.00 0.00 0.00 89 1019.1
20260506070628 48 323 0.9 0.9 0.00 0.00 0.00 88 1018.9
20260506070125 49 326 0.0 0.0 0.00 0.10 0.10 87 1018.8
20260506062103 50 348 1.7 1.7 0.00 0.10 0.10 86 1018.7
20260506061558 49 339 0.9 0.9 0.00 0.10 0.10 86 1018.5
20260506061056 49 330 0.9 1.7 0.00 0.10 0.10 87 1018.4
20260506060555 49 337 0.0 0.9 0.00 0.10 0.10 86 1018.2
20260506051024 51 320 0.0 0.0 0.00 0.10 0.10 81 1017.8
20260506050521 52 315 0.9 1.7 0.00 0.10 0.10 80 1018.1
20260506045011 51 328 0.0 0.9 0.00 0.10 0.10 83 1017.6
20260506044510 50 326 0.0 0.0 0.00 0.10 0.10 84 1017.5
20260506044006 50 324 0.0 0.0 0.00 0.10 0.10 84 1017.5
20260506043503 50 321 0.0 0.0 0.00 0.10 0.10 84 1017.6
20260506043001 50 321 0.9 1.7 0.00 0.10 0.10 84 1017.6
20260506042500 50 329 0.0 0.0 0.00 0.10 0.10 84 1017.3
20260506041957 50 330 0.9 0.9 0.00 0.10 0.10 84 1017.3
20260506041456 51 331 0.0 0.9 0.00 0.10 0.10 83 1017.5
20260506040953 51 330 0.0 0.0 0.00 0.10 0.10 83 1017.2
20260506040450 51 330 0.0 0.0 0.00 0.10 0.10 84 1017.0
20260506035946 51 330 0.0 0.0 0.00 0.10 0.10 82 1017.2
20260506035443 51 330 0.0 0.0 0.00 0.10 0.10 83 1017.2
20260506034940 51 330 0.0 0.9 0.00 0.10 0.10 82 1016.8
20260506034438 52 329 0.0 0.0 0.00 0.10 0.10 81 1016.7
20260506033934 51 338 0.0 0.9 0.00 0.10 0.10 82 1016.7
20260506033432 52 336 0.0 0.9 0.00 0.10 0.10 81 1016.8
20260506032928 52 338 0.9 0.9 0.00 0.10 0.10 81 1016.7
20260506032425 52 335 0.0 0.0 0.00 0.10 0.10 81 1016.4
20260506031922 52 329 0.0 0.0 0.00 0.10 0.10 81 1016.6
20260506031419 53 325 0.0 0.9 0.00 0.10 0.10 79 1016.3
20260506030917 53 329 0.0 0.0 0.00 0.10 0.10 79 1016.2
20260506030415 52 333 0.0 0.0 0.00 0.10 0.10 79 1016.2
20260506025911 53 333 0.0 0.0 0.00 0.10 0.10 79 1016.0
20260506025408 53 333 0.0 0.0 0.00 0.10 0.10 78 1015.9
20260506024905 54 333 0.0 0.9 0.00 0.10 0.10 75 1015.8
20260506024402 55 330 0.0 0.0 0.00 0.10 0.10 72 1015.9
20260506023858 55 315 0.9 0.9 0.00 0.10 0.10 69 1015.8
20260506023355 56 282 0.9 1.7 0.00 0.10 0.10 69 1015.7
20260506022851 56 299 2.6 2.6 0.00 0.10 0.10 68 1015.7
20260506022349 56 315 0.9 1.7 0.00 0.10 0.10 67 1015.5
20260506021847 56 273 2.6 4.3 0.00 0.10 0.10 67 1015.4
20260506021344 57 327 1.7 1.7 0.00 0.10 0.10 67 1015.3
20260506020840 57 319 4.3 5.2 0.00 0.10 0.10 67 1015.3
20260506020338 57 283 4.3 5.2 0.00 0.10 0.10 67 1015.3
20260506015836 57 277 6.1 7.8 0.00 0.10 0.10 67 1015.3